Tracking 27188 objects as of 1-Apr-2023
HD Live streaming from Space Station
objects crossing your sky now

NANOSAT C BR2

Track NANOSAT C BR2 now!
10-day predictions
NANOSAT C BR2 is classified as:


NORAD ID: 47950
Int'l Code: 2021-022U
Perigee: 521.8 km
Apogee: 544.9 km
Inclination: 97.5 °
Period: 95.2 minutes
Semi major axis: 6904 km
RCS: Unknown
Launch date: March 22, 2021
Source: (TBD)
Launch site: TYURATAM MISSILE AND SPACE COMPLEX (TTMTR)

Uplink (MHz):
Downlink (MHz): 145.865
Beacon (MHz):
Mode: 1k2/2k4/4k8/9k6BPSK
Call sign: NCBR2
Status: Active

Your satellite tracking list
Your tracking list is empty




NASA's NSSDC Master Catalog

Two Line Element Set (TLE):
1 47950U 21022U   23091.24958314  .00017539  00000-0  98473-3 0  9992
2 47950  97.5016 350.0800 0016677 237.5562 240.8832 15.13274996111421
Source of the keplerian elements: AFSPC